Wind_Speed
20 15 14 16 17 16 16 17 19 19 21 19 19 18 17 16 15 14 13 14 15 14 13 12 12 12 12 13 17 20 20 21
11 13 14 17 19 18 16 17 18 19 18 16 14 12 13 14 14 14 13 14 13 11 14 13 13 12 14 16 19 22 23 24
14 16 20 21 20 19 18 17 17 16 15 15 14 14 14 13 13 14 16 15 13 14 13 13 14 15 17 19 21 24 22 20
17 19 20 21 21 19 18 17 16 16 17 18 17 14 13 13 12 14 16 13 14 13 13 14 15 18 22 23 24 27 33 35
18 18 19 18 19 20 20 20 20 19 19 18 18 17 15 14 15 15 17 16 14 13 13 15 17 21 25 27 32 34 30 34
19 19 20 21 22 21 22 21 21 21 21 19 19 20 20 19 19 22 17 17 17 15 16 19 21 24 28 32 35 33 38 32
21 20 20 21 22 23 23 22 22 23 23 22 22 23 23 23 23 18 19 20 19 18 19 22 24 25 29 36 34 29 27 33
25 25 24 25 24 23 22 22 23 22 23 23 23 21 24 25 25 22 21 21 20 21 24 25 26 28 32 31 30 24 32 33
32 29 26 26 26 25 23 25 22 20 19 18 18 26 28 25 26 23 22 23 24 25 27 27 25 28 32 38 31 36 38 38
26 32 33 28 26 23 19 23 22 19 18 23 22 23 25 26 25 25 26 25 26 27 26 27 31 29 33 34 37 39 38 40
18 25 29 30 29 27 27 22 21 21 21 22 24 24 27 27 27 26 25 25 26 24 27 33 34 30 28 35 39 38 39 41
14 18 21 26 28 26 25 29 26 23 21 21 22 23 25 27 27 26 25 27 30 23 31 36 21 26 28 33 35 37 39 40
5 7 13 24 29 29 28 27 26 23 20 17 17 18 22 23 24 26 29 31 25 17 29 33 24 31 30 34 37 39 39 37
13 11 13 13 20 25 26 24 25 27 23 20 19 19 20 24 28 34 33 34 27 16 27 29 24 23 33 34 40 37 34 33
11 11 15 17 17 19 22 23 26 27 25 25 26 26 29 25 23 33 35 36 28 22 32 30 25 27 35 36 36 33 32 32
19 17 17 20 21 22 22 21 23 25 23 25 26 28 27 28 34 36 31 20 28 23 34 31 30 36 34 32 31 31 32 34
20 20 20 19 25 23 24 24 22 24 25 27 29 30 30 28 29 34 35 30 21 29 28 32 34 34 30 30 32 33 34 36
29 29 28 28 28 29 27 26 27 27 29 31 32 32 30 23 25 29 29 24 31 30 33 33 33 30 30 31 33 36 38 40
19 19 22 22 24 27 28 29 30 31 33 33 31 27 23 23 25 27 31 29 30 35 36 33 32 29 30 33 35 39 43 45
Wind_Direction
136 142 147 149 153 150 152 151 158 167 163 162 164 169 174 185 194 200 215 221 225 241 265 283 286 290 299 305 306 308 307 310
150 154 156 155 155 152 152 157 164 167 166 164 171 174 188 197 203 212 218 232 244 260 279 286 286 290 294 301 304 304 298 295
177 168 164 161 162 166 168 169 171 171 172 180 188 199 204 209 215 220 239 239 250 262 280 285 285 286 290 300 296 305 304 304
181 179 174 176 179 179 180 184 186 190 198 207 211 214 216 220 229 235 248 249 258 266 279 285 284 284 289 294 295 297 294 296
200 196 193 192 189 194 197 198 199 206 212 217 221 225 228 229 237 243 246 250 254 270 277 282 281 281 283 293 291 298 298 297
209 204 204 207 206 207 209 213 214 219 223 229 233 237 234 236 243 251 255 253 256 260 267 277 273 278 283 286 294 303 297 290
220 215 213 211 214 217 220 222 226 230 233 240 245 247 246 237 245 269 255 249 252 260 268 273 275 286 291 286 280 294 299 303
224 222 220 217 219 221 226 229 234 241 245 249 251 248 258 246 248 257 242 249 255 261 264 270 276 283 287 296 283 307 312 316
228 227 227 227 229 232 235 237 235 242 244 244 246 248 255 251 250 253 243 246 252 260 266 271 281 282 281 274 297 312 309 313
228 228 231 232 232 233 239 242 240 222 234 243 259 259 256 255 250 247 239 251 261 269 273 278 280 283 285 272 303 310 310 310
220 225 226 227 234 235 238 248 241 234 239 252 263 264 258 253 251 240 245 257 263 262 278 278 268 275 282 298 304 307 308 305
222 218 219 223 220 219 231 237 244 236 251 258 264 261 258 252 248 246 253 257 262 271 269 270 283 296 301 308 307 305 304 303
272 258 238 228 222 223 222 227 231 236 246 254 254 255 255 256 250 250 252 253 253 281 276 278 289 300 295 300 302 303 302 300
273 266 254 240 232 229 230 231 231 234 240 251 259 253 248 245 255 241 251 255 249 318 267 280 308 284 299 301 301 302 301 298
271 264 251 239 238 232 231 234 240 239 248 252 261 278 286 280 284 262 255 243 300 299 255 302 302 295 304 301 301 302 301 301
260 261 259 248 240 236 230 242 242 245 254 263 267 270 272 271 266 265 263 280 296 279 296 306 305 304 303 304 304 304 304 303
255 258 255 258 244 241 240 247 249 255 257 258 265 265 267 263 271 261 293 312 283 303 300 305 304 304 305 303 304 304 304 304
257 258 260 257 247 239 243 246 252 255 254 259 262 262 264 266 266 279 291 284 297 297 308 309 304 302 304 305 306 306 306 306
255 253 251 251 249 243 245 250 253 254 255 257 262 262 269 277 271 290 294 289 302 300 303 302 300 303 306 307 307 306 306 307
Height
3117 3118 3121 3123 3126 3127 3129 3133 3136 3139 3141 3144 3146 3149 3152 3156 3158 3160 3161 3162 3163 3164 3164 3163 3163 3163 3163 3161 3160 3160 3158 3157
3121 3122 3125 3126 3127 3130 3133 3136 3138 3141 3143 3145 3148 3150 3153 3155 3156 3157 3158 3159 3160 3160 3161 3160 3160 3159 3158 3157 3157 3155 3153 3152
3121 3123 3125 3127 3129 3132 3134 3137 3139 3141 3143 3146 3147 3149 3151 3152 3153 3155 3155 3155 3155 3157 3157 3157 3156 3155 3154 3153 3152 3150 3148 3148
3121 3123 3125 3127 3129 3132 3133 3135 3137 3139 3142 3144 3146 3147 3148 3149 3150 3151 3151 3152 3152 3153 3153 3153 3152 3151 3150 3149 3148 3146 3144 3142
3121 3122 3124 3126 3128 3130 3132 3133 3136 3138 3139 3141 3142 3144 3145 3146 3147 3147 3147 3148 3149 3148 3148 3148 3148 3147 3145 3144 3142 3141 3138 3135
3119 3121 3123 3125 3126 3128 3130 3131 3132 3134 3136 3137 3138 3139 3140 3141 3142 3139 3142 3144 3144 3144 3144 3143 3142 3141 3139 3138 3136 3133 3130 3129
3116 3118 3120 3122 3124 3125 3126 3127 3129 3131 3132 3134 3135 3136 3137 3136 3136 3136 3137 3139 3139 3138 3138 3137 3136 3135 3133 3130 3127 3125 3124 3122
3112 3114 3116 3118 3119 3121 3122 3124 3126 3127 3129 3130 3131 3131 3132 3131 3131 3131 3131 3132 3132 3132 3131 3130 3129 3127 3124 3121 3119 3116 3115 3111
3106 3110 3112 3114 3116 3118 3120 3121 3122 3124 3124 3126 3127 3127 3127 3125 3125 3125 3125 3126 3125 3125 3124 3122 3121 3119 3116 3113 3111 3107 3106 3103
3100 3103 3106 3109 3111 3114 3115 3116 3117 3118 3120 3120 3120 3120 3119 3119 3119 3119 3119 3119 3119 3119 3117 3115 3113 3112 3109 3107 3104 3100 3097 3094
3096 3098 3100 3103 3105 3108 3110 3112 3113 3113 3114 3114 3115 3114 3113 3113 3112 3112 3113 3113 3113 3112 3111 3108 3105 3103 3103 3101 3097 3092 3090 3086
3094 3095 3097 3098 3100 3101 3104 3106 3108 3108 3109 3109 3108 3107 3107 3106 3107 3107 3108 3107 3106 3104 3102 3098 3097 3097 3095 3092 3089 3086 3082 3077
3092 3092 3092 3093 3095 3097 3098 3100 3102 3103 3102 3102 3102 3101 3101 3102 3102 3102 3101 3099 3096 3097 3096 3093 3091 3088 3087 3085 3082 3077 3072 3068
3088 3089 3089 3089 3090 3091 3092 3094 3095 3096 3096 3096 3097 3096 3095 3094 3092 3092 3092 3090 3087 3087 3087 3085 3083 3081 3079 3076 3073 3067 3063 3059
3084 3084 3085 3085 3085 3085 3086 3088 3088 3089 3090 3090 3089 3090 3089 3087 3086 3085 3082 3079 3076 3079 3079 3076 3075 3072 3069 3067 3062 3058 3054 3049
3080 3080 3080 3080 3080 3080 3081 3083 3083 3083 3083 3083 3083 3083 3082 3082 3080 3077 3077 3074 3076 3073 3072 3069 3066 3063 3059 3055 3052 3048 3044 3040
3074 3074 3075 3074 3074 3074 3075 3076 3077 3077 3076 3077 3076 3075 3075 3074 3073 3072 3070 3068 3067 3065 3063 3060 3057 3053 3049 3046 3043 3040 3035 3031
3067 3068 3068 3068 3068 3068 3068 3068 3069 3069 3068 3069 3069 3068 3067 3066 3066 3065 3064 3062 3059 3056 3053 3050 3048 3044 3041 3039 3035 3030 3025 3021
3057 3058 3059 3060 3061 3061 3062 3062 3062 3061 3062 3062 3061 3060 3059 3059 3059 3058 3056 3053 3051 3048 3045 3042 3039 3037 3034 3030 3025 3019 3014 3010